"Sample Date","Sample Time","Sample Value","Units","Flow Rate","Sample Interval","Number Channels","Micron Size 0","Counts/Channel 0","Micron Size 1","Counts/Channel 1","Micron Size 2","Counts/Channel 2","Micron Size 3","Counts/Channel 3","Micron Size 4","Counts/Channel 4","Micron Size 5","Counts/Channel 5","Micron Size 6","Counts/Channel 6","Micron Size 7","Counts/Channel 7","Micron Size 8","Counts/Channel 8","Micron Size 9","Counts/Channel 9","Micron Size 10","Counts/Channel 10","Micron Size 11","Counts/Channel 11","Micron Size 12","Counts/Channel 12","Micron Size 13","Counts/Channel 13","Micron Size 14","Counts/Channel 14","Micron Size 15","Counts/Channel 15","Micron Size 16","Counts/Channel 16","Micron Size 17","Counts/Channel 17","Micron Size 18","Counts/Channel 18","Micron Size 19","Counts/Channel 19","Micron Size 20","Counts/Channel 20","Micron Size 21","Counts/Channel 21","Micron Size 22","Counts/Channel 22","Micron Size 23","Counts/Channel 23","Micron Size 24","Counts/Channel 24","Micron Size 25","Counts/Channel 25","Micron Size 26","Counts/Channel 26","Micron Size 27","Counts/Channel 27","Micron Size 28","Counts/Channel 28","Micron Size 29","Counts/Channel 29","Micron Size 30","Counts/Channel 30","Micron Size 31","Counts/Channel 31"
"03/09/08","17:00:04",16625.000,"cc",28355.934,6.00,6,0.100,14489.000,0.200,2032.000,0.300,98.000,0.500,6.000,1.000,0,5.000,0
"03/09/08","17:00:10",16676.000,"cc",28199.643,6.00,6,0.100,14617.000,0.200,1953.000,0.300,98.000,0.500,7.000,1.000,1.000,5.000,0
"03/09/08","17:00:16",16497.000,"cc",28343.268,6.00,6,0.100,14579.000,0.200,1835.000,0.300,80.000,0.500,3.000,1.000,0,5.000,0
"03/09/08","17:00:22",16851.000,"cc",28344.315,6.00,6,0.100,14835.000,0.200,1900.000,0.300,111.000,0.500,5.000,1.000,0,5.000,0
"03/09/08","17:00:28",16886.000,"cc",28359.848,6.00,6,0.100,14729.000,0.200,2024.000,0.300,123.000,0.500,9.000,1.000,1.000,5.000,0
"03/09/08","17:00:34",16877.000,"cc",28248.522,6.00,6,0.100,14728.000,0.200,2059.000,0.300,85.000,0.500,4.000,1.000,1.000,5.000,0
"03/09/08","17:00:40",16849.000,"cc",28330.586,6.00,6,0.100,14700.000,0.200,2054.000,0.300,90.000,0.500,3.000,1.000,2.000,5.000,0
"03/09/08","17:00:46",16677.000,"cc",28320.762,6.00,6,0.100,14645.000,0.200,1934.000,0.300,92.000,0.500,6.000,1.000,0,5.000,0
"03/09/08","17:00:52",17080.000,"cc",28277.732,6.00,6,0.100,14924.000,0.200,2049.000,0.300,100.000,0.500,7.000,1.000,0,5.000,0
"03/09/08","17:00:58",17250.000,"cc",28344.330,6.00,6,0.100,14979.000,0.200,2158.000,0.300,109.000,0.500,3.000,1.000,1.000,5.000,0
"03/09/08","17:01:04",16962.000,"cc",28339.365,6.00,6,0.100,14771.000,0.200,2090.000,0.300,92.000,0.500,9.000,1.000,0,5.000,0
"03/09/08","17:01:10",17272.000,"cc",28241.022,6.00,6,0.100,15011.000,0.200,2142.000,0.300,113.000,0.500,6.000,1.000,0,5.000,0
"03/09/08","17:01:16",16904.000,"cc",28375.201,6.00,6,0.100,14823.000,0.200,1976.000,0.300,94.000,0.500,10.000,1.000,1.000,5.000,0
"03/09/08","17:01:22",16784.000,"cc",28358.309,6.00,6,0.100,14704.000,0.200,1945.000,0.300,123.000,0.500,10.000,1.000,2.000,5.000,0
"03/09/08","17:01:28",17134.000,"cc",28265.555,6.00,6,0.100,14943.000,0.200,2078.000,0.300,107.000,0.500,5.000,1.000,1.000,5.000,0
"03/09/08","17:01:34",17015.000,"cc",28331.211,6.00,6,0.100,14862.000,0.200,2036.000,0.300,113.000,0.500,4.000,1.000,0,5.000,0
"03/09/08","17:01:40",16726.000,"cc",28387.906,6.00,6,0.100,14612.000,0.200,1996.000,0.300,113.000,0.500,4.000,1.000,1.000,5.000,0
"03/09/08","17:01:46",16516.000,"cc",28274.293,6.00,6,0.100,14474.000,0.200,1953.000,0.300,85.000,0.500,4.000,1.000,0,5.000,0
"03/09/08","17:01:52",16955.000,"cc",28223.727,6.00,6,0.100,14842.000,0.200,2008.000,0.300,100.000,0.500,5.000,1.000,0,5.000,0
"03/09/08","17:01:58",16773.000,"cc",28392.303,6.00,6,0.100,14616.000,0.200,2023.000,0.300,127.000,0.500,7.000,1.000,0,5.000,0
"03/09/08","17:02:04",17098.000,"cc",28362.723,6.00,6,0.100,14900.000,0.200,2102.000,0.300,86.000,0.500,10.000,1.000,0,5.000,0
"03/09/08","17:02:10",17095.000,"cc",28256.725,6.00,6,0.100,14913.000,0.200,2048.000,0.300,125.000,0.500,9.000,1.000,0,5.000,0
"03/09/08","17:02:16",16900.000,"cc",28303.443,6.00,6,0.100,14797.000,0.200,2015.000,0.300,84.000,0.500,3.000,1.000,1.000,5.000,0
"03/09/08","17:02:22",17449.000,"cc",28231.072,6.00,6,0.100,15212.000,0.200,2088.000,0.300,142.000,0.500,7.000,1.000,0,5.000,0
"03/09/08","17:02:28",17237.000,"cc",28359.051,6.00,6,0.100,15062.000,0.200,2073.000,0.300,98.000,0.500,4.000,1.000,0,5.000,0
"03/09/08","17:02:34",16907.000,"cc",28291.969,6.00,6,0.100,14742.000,0.200,2051.000,0.300,109.000,0.500,5.000,1.000,0,5.000,0
"03/09/08","17:02:40",17283.000,"cc",28380.736,6.00,6,0.100,15086.000,0.200,2095.000,0.300,97.000,0.500,4.000,1.000,1.000,5.000,0
"03/09/08","17:02:46",17376.000,"cc",28304.121,6.00,6,0.100,15018.000,0.200,2202.000,0.300,145.000,0.500,11.000,1.000,0,5.000,0
"03/09/08","17:02:52",16833.000,"cc",28238.580,6.00,6,0.100,14746.000,0.200,1979.000,0.300,99.000,0.500,8.000,1.000,1.000,5.000,0
"03/09/08","17:02:58",17408.000,"cc",28285.672,6.00,6,0.100,15077.000,0.200,2127.000,0.300,156.000,0.500,40.000,1.000,8.000,5.000,0
"03/09/08","17:03:04",17388.000,"cc",28347.977,6.00,6,0.100,15127.000,0.200,2149.000,0.300,102.000,0.500,9.000,1.000,1.000,5.000,0
"03/09/08","17:03:10",17295.000,"cc",28345.791,6.00,6,0.100,15091.000,0.200,2078.000,0.300,117.000,0.500,8.000,1.000,1.000,5.000,0
"03/09/08","17:03:16",17299.000,"cc",28332.768,6.00,6,0.100,15108.000,0.200,2065.000,0.300,119.000,0.500,6.000,1.000,1.000,5.000,0
"03/09/08","17:03:22",17469.000,"cc",28367.799,6.00,6,0.100,15215.000,0.200,2142.000,0.300,109.000,0.500,3.000,1.000,0,5.000,0
"03/09/08","17:03:28",17200.000,"cc",28384.566,6.00,6,0.100,15055.000,0.200,2012.000,0.300,128.000,0.500,5.000,1.000,0,5.000,0
"03/09/08","17:03:34",17337.000,"cc",28361.231,6.00,6,0.100,15038.000,0.200,2167.000,0.300,117.000,0.500,15.000,1.000,0,5.000,0
"03/09/08","17:03:40",17082.000,"cc",28254.293,6.00,6,0.100,14851.000,0.200,2125.000,0.300,104.000,0.500,2.000,1.000,0,5.000,0
"03/09/08","17:03:46",16940.000,"cc",28263.836,6.00,6,0.100,14848.000,0.200,1983.000,0.300,107.000,0.500,2.000,1.000,0,5.000,0
"03/09/08","17:03:52",17386.000,"cc",28320.857,6.00,6,0.100,15108.000,0.200,2141.000,0.300,128.000,0.500,9.000,1.000,0,5.000,0
"03/09/08","17:03:58",17230.000,"cc",28288.022,6.00,6,0.100,14949.000,0.200,2139.000,0.300,130.000,0.500,11.000,1.000,1.000,5.000,0
"03/09/08","17:04:04",17700.000,"cc",28262.832,6.00,6,0.100,15273.000,0.200,2253.000,0.300,157.000,0.500,15.000,1.000,2.000,5.000,0
"03/09/08","17:04:10",17165.000,"cc",28360.994,6.00,6,0.100,14948.000,0.200,2092.000,0.300,119.000,0.500,5.000,1.000,1.000,5.000,0
"03/09/08","17:04:16",17445.000,"cc",28347.674,6.00,6,0.100,15118.000,0.200,2178.000,0.300,135.000,0.500,11.000,1.000,3.000,5.000,0
"03/09/08","17:04:22",17484.000,"cc",28317.781,6.00,6,0.100,15252.000,0.200,2113.000,0.300,114.000,0.500,5.000,1.000,0,5.000,0
"03/09/08","17:04:28",17340.000,"cc",28269.941,6.00,6,0.100,15084.000,0.200,2117.000,0.300,134.000,0.500,5.000,1.000,0,5.000,0
"03/09/08","17:04:34",17359.000,"cc",28290.928,6.00,6,0.100,15109.000,0.200,2113.000,0.300,125.000,0.500,12.000,1.000,0,5.000,0
"03/09/08","17:04:40",17421.000,"cc",28390.385,6.00,6,0.100,15044.000,0.200,2237.000,0.300,132.000,0.500,8.000,1.000,0,5.000,0
"03/09/08","17:04:46",17428.000,"cc",28301.963,6.00,6,0.100,15192.000,0.200,2116.000,0.300,113.000,0.500,6.000,1.000,1.000,5.000,0
"03/09/08","17:04:52",17392.000,"cc",28326.041,6.00,6,0.100,15228.000,0.200,2040.000,0.300,120.000,0.500,4.000,1.000,0,5.000,0
"03/09/08","17:04:58",17504.000,"cc",28285.287,6.00,6,0.100,15223.000,0.200,2148.000,0.300,128.000,0.500,5.000,1.000,0,5.000,0
"03/09/08","17:05:04",17498.000,"cc",28332.850,6.00,6,0.100,15132.000,0.200,2253.000,0.300,106.000,0.500,6.000,1.000,1.000,5.000,0
"03/09/08","17:05:10",17796.000,"cc",28256.049,6.00,6,0.100,15399.000,0.200,2252.000,0.300,135.000,0.500,10.000,1.000,0,5.000,0
"03/09/08","17:05:16",17842.000,"cc",28351.678,6.00,6,0.100,15490.000,0.200,2205.000,0.300,132.000,0.500,15.000,1.000,0,5.000,0
"03/09/08","17:05:22",17555.000,"cc",28398.211,6.00,6,0.100,15255.000,0.200,2173.000,0.300,122.000,0.500,4.000,1.000,1.000,5.000,0
"03/09/08","17:05:28",17687.000,"cc",28307.402,6.00,6,0.100,15294.000,0.200,2241.000,0.300,139.000,0.500,13.000,1.000,0,5.000,0
"03/09/08","17:05:34",17626.000,"cc",28304.141,6.00,6,0.100,15191.000,0.200,2286.000,0.300,142.000,0.500,7.000,1.000,0,5.000,0
"03/09/08","17:05:40",17400.000,"cc",28346.979,6.00,6,0.100,15148.000,0.200,2132.000,0.300,111.000,0.500,8.000,1.000,1.000,5.000,0
"03/09/08","17:05:46",17707.000,"cc",28304.461,6.00,6,0.100,15282.000,0.200,2290.000,0.300,128.000,0.500,7.000,1.000,0,5.000,0
"03/09/08","17:05:52",17888.000,"cc",28321.234,6.00,6,0.100,15551.000,0.200,2189.000,0.300,136.000,0.500,12.000,1.000,0,5.000,0
"03/09/08","17:05:58",17571.000,"cc",28342.988,6.00,6,0.100,15184.000,0.200,2263.000,0.300,119.000,0.500,5.000,1.000,0,5.000,0
"03/09/08","17:06:04",17720.000,"cc",28328.900,6.00,6,0.100,15311.000,0.200,2254.000,0.300,139.000,0.500,16.000,1.000,0,5.000,0
"03/09/08","17:06:10",17927.000,"cc",28311.063,6.00,6,0.100,15393.000,0.200,2380.000,0.300,143.000,0.500,11.000,1.000,0,5.000,0
"03/09/08","17:06:16",17546.000,"cc",28356.373,6.00,6,0.100,15226.000,0.200,2194.000,0.300,122.000,0.500,4.000,1.000,0,5.000,0
"03/09/08","17:06:22",17612.000,"cc",28398.102,6.00,6,0.100,15230.000,0.200,2274.000,0.300,102.000,0.500,6.000,1.000,0,5.000,0
"03/09/08","17:06:28",17611.000,"cc",28259.525,6.00,6,0.100,15155.000,0.200,2312.000,0.300,130.000,0.500,14.000,1.000,0,5.000,0
"03/09/08","17:06:34",17646.000,"cc",28315.049,6.00,6,0.100,15199.000,0.200,2289.000,0.300,147.000,0.500,11.000,1.000,0,5.000,0
"03/09/08","17:06:40",17863.000,"cc",28315.635,6.00,6,0.100,15379.000,0.200,2341.000,0.300,134.000,0.500,7.000,1.000,2.000,5.000,0
"03/09/08","17:06:46",17657.000,"cc",28241.527,6.00,6,0.100,15296.000,0.200,2226.000,0.300,126.000,0.500,8.000,1.000,1.000,5.000,0
"03/09/08","17:06:52",18100.000,"cc",28323.940,6.00,6,0.100,15448.000,0.200,2457.000,0.300,161.000,0.500,33.000,1.000,1.000,5.000,0
"03/09/08","17:06:58",17789.000,"cc",28398.418,6.00,6,0.100,15353.000,0.200,2285.000,0.300,136.000,0.500,15.000,1.000,0,5.000,0
"03/09/08","17:07:04",18086.000,"cc",28337.188,6.00,6,0.100,15473.000,0.200,2437.000,0.300,161.000,0.500,13.000,1.000,2.000,5.000,0
"03/09/08","17:07:10",17727.000,"cc",28316.697,6.00,6,0.100,15258.000,0.200,2318.000,0.300,140.000,0.500,11.000,1.000,0,5.000,0
"03/09/08","17:07:16",17745.000,"cc",28332.184,6.00,6,0.100,15252.000,0.200,2335.000,0.300,153.000,0.500,5.000,1.000,0,5.000,0
"03/09/08","17:07:22",17125.000,"cc",28378.926,6.00,6,0.100,14878.000,0.200,2117.000,0.300,123.000,0.500,6.000,1.000,1.000,5.000,0
"03/09/08","17:07:28",18150.000,"cc",28272.930,6.00,6,0.100,15559.000,0.200,2426.000,0.300,155.000,0.500,9.000,1.000,1.000,5.000,0
"03/09/08","17:07:34",17660.000,"cc",28279.219,6.00,6,0.100,15339.000,0.200,2168.000,0.300,137.000,0.500,16.000,1.000,0,5.000,0
"03/09/08","17:07:40",17562.000,"cc",28232.850,6.00,6,0.100,15313.000,0.200,2119.000,0.300,121.000,0.500,9.000,1.000,0,5.000,0
"03/09/08","17:07:46",17841.000,"cc",28326.342,6.00,6,0.100,15321.000,0.200,2370.000,0.300,135.000,0.500,14.000,1.000,1.000,5.000,0
"03/09/08","17:07:52",17717.000,"cc",28275.232,6.00,6,0.100,15414.000,0.200,2180.000,0.300,117.000,0.500,6.000,1.000,0,5.000,0
"03/09/08","17:07:58",18225.000,"cc",28287.447,6.00,6,0.100,15702.000,0.200,2358.000,0.300,150.000,0.500,15.000,1.000,0,5.000,0
"03/09/08","17:08:04",17696.000,"cc",28327.516,6.00,6,0.100,15299.000,0.200,2258.000,0.300,124.000,0.500,15.000,1.000,0,5.000,0
"03/09/08","17:08:10",18208.000,"cc",28359.625,6.00,6,0.100,15661.000,0.200,2401.000,0.300,137.000,0.500,9.000,1.000,0,5.000,0
"03/09/08","17:08:16",18125.000,"cc",28283.857,6.00,6,0.100,15481.000,0.200,2484.000,0.300,152.000,0.500,8.000,1.000,0,5.000,0
"03/09/08","17:08:22",17809.000,"cc",28339.199,6.00,6,0.100,15441.000,0.200,2239.000,0.300,122.000,0.500,7.000,1.000,0,5.000,0
"03/09/08","17:08:28",17982.000,"cc",28360.965,6.00,6,0.100,15370.000,0.200,2430.000,0.300,160.000,0.500,20.000,1.000,2.000,5.000,0
"03/09/08","17:08:34",18065.000,"cc",28334.154,6.00,6,0.100,15528.000,0.200,2366.000,0.300,159.000,0.500,12.000,1.000,0,5.000,0
"03/09/08","17:08:40",17866.000,"cc",28370.652,6.00,6,0.100,15454.000,0.200,2276.000,0.300,127.000,0.500,8.000,1.000,1.000,5.000,0
"03/09/08","17:08:46",17452.000,"cc",28337.039,6.00,6,0.100,15047.000,0.200,2272.000,0.300,125.000,0.500,8.000,1.000,0,5.000,0
"03/09/08","17:08:52",17888.000,"cc",28245.518,6.00,6,0.100,15465.000,0.200,2276.000,0.300,136.000,0.500,11.000,1.000,0,5.000,0
"03/09/08","17:08:58",17899.000,"cc",28323.844,6.00,6,0.100,15395.000,0.200,2349.000,0.300,147.000,0.500,8.000,1.000,0,5.000,0
"03/09/08","17:09:04",18119.000,"cc",28276.674,6.00,6,0.100,15520.000,0.200,2427.000,0.300,154.000,0.500,18.000,1.000,0,5.000,0
"03/09/08","17:09:10",17955.000,"cc",28250.191,6.00,6,0.100,15483.000,0.200,2331.000,0.300,129.000,0.500,12.000,1.000,0,5.000,0
"03/09/08","17:09:16",18089.000,"cc",28342.193,6.00,6,0.100,15528.000,0.200,2409.000,0.300,138.000,0.500,14.000,1.000,0,5.000,0
"03/09/08","17:09:22",18286.000,"cc",28356.416,6.00,6,0.100,15724.000,0.200,2419.000,0.300,137.000,0.500,5.000,1.000,1.000,5.000,0
"03/09/08","17:09:28",18089.000,"cc",28313.746,6.00,6,0.100,15487.000,0.200,2437.000,0.300,151.000,0.500,14.000,1.000,0,5.000,0
"03/09/08","17:09:34",18045.000,"cc",28305.883,6.00,6,0.100,15581.000,0.200,2345.000,0.300,110.000,0.500,9.000,1.000,0,5.000,0
"03/09/08","17:09:40",18267.000,"cc",28262.525,6.00,6,0.100,15732.000,0.200,2398.000,0.300,128.000,0.500,8.000,1.000,1.000,5.000,0
"03/09/08","17:09:46",18380.000,"cc",28336.022,6.00,6,0.100,15798.000,0.200,2452.000,0.300,120.000,0.500,10.000,1.000,0,5.000,0
"03/09/08","17:09:52",18117.000,"cc",28395.883,6.00,6,0.100,15637.000,0.200,2340.000,0.300,131.000,0.500,9.000,1.000,0,5.000,0
"03/09/08","17:09:58",18178.000,"cc",28353.363,6.00,6,0.100,15767.000,0.200,2266.000,0.300,136.000,0.500,8.000,1.000,1.000,5.000,0
"03/09/08","17:10:04",18171.000,"cc",28329.451,6.00,6,0.100,15607.000,0.200,2381.000,0.300,166.000,0.500,17.000,1.000,0,5.000,0
"03/09/08","17:10:10",18133.000,"cc",28282.635,6.00,6,0.100,15574.000,0.200,2441.000,0.300,109.000,0.500,9.000,1.000,0,5.000,0
"03/09/08","17:10:16",18515.000,"cc",28321.947,6.00,6,0.100,15917.000,0.200,2456.000,0.300,129.000,0.500,12.000,1.000,1.000,5.000,0
"03/09/08","17:10:22",18243.000,"cc",28351.100,6.00,6,0.100,15785.000,0.200,2324.000,0.300,128.000,0.500,5.000,1.000,1.000,5.000,0
"03/09/08","17:10:28",18242.000,"cc",28342.272,6.00,6,0.100,15687.000,0.200,2370.000,0.300,171.000,0.500,14.000,1.000,0,5.000,0
"03/09/08","17:10:34",18293.000,"cc",28246.647,6.00,6,0.100,15615.000,0.200,2498.000,0.300,163.000,0.500,15.000,1.000,2.000,5.000,0
"03/09/08","17:10:40",18083.000,"cc",28289.742,6.00,6,0.100,15638.000,0.200,2324.000,0.300,109.000,0.500,12.000,1.000,0,5.000,0
"03/09/08","17:10:46",18135.000,"cc",28345.789,6.00,6,0.100,15641.000,0.200,2380.000,0.300,104.000,0.500,10.000,1.000,0,5.000,0
"03/09/08","17:10:52",17974.000,"cc",28355.533,6.00,6,0.100,15515.000,0.200,2352.000,0.300,102.000,0.500,5.000,1.000,0,5.000,0
"03/09/08","17:10:58",18083.000,"cc",28314.500,6.00,6,0.100,15593.000,0.200,2343.000,0.300,138.000,0.500,8.000,1.000,1.000,5.000,0
"03/09/08","17:11:04",18678.000,"cc",28295.703,6.00,6,0.100,16053.000,0.200,2457.000,0.300,149.000,0.500,19.000,1.000,0,5.000,0
"03/09/08","17:11:10",18485.000,"cc",28280.438,6.00,6,0.100,15846.000,0.200,2472.000,0.300,155.000,0.500,12.000,1.000,0,5.000,0
"03/09/08","17:11:16",18493.000,"cc",28321.166,6.00,6,0.100,15780.000,0.200,2579.000,0.300,122.000,0.500,10.000,1.000,2.000,5.000,0
"03/09/08","17:11:22",18432.000,"cc",28356.543,6.00,6,0.100,15871.000,0.200,2416.000,0.300,131.000,0.500,13.000,1.000,1.000,5.000,0
"03/09/08","17:11:28",18023.000,"cc",28340.193,6.00,6,0.100,15466.000,0.200,2416.000,0.300,131.000,0.500,9.000,1.000,1.000,5.000,0
"03/09/08","17:11:34",18417.000,"cc",28383.492,6.00,6,0.100,15955.000,0.200,2324.000,0.300,127.000,0.500,11.000,1.000,0,5.000,0
"03/09/08","17:11:40",18208.000,"cc",28286.217,6.00,6,0.100,15667.000,0.200,2402.000,0.300,133.000,0.500,6.000,1.000,0,5.000,0
"03/09/08","17:11:46",18535.000,"cc",28262.152,6.00,6,0.100,15847.000,0.200,2542.000,0.300,132.000,0.500,14.000,1.000,0,5.000,0
"03/09/08","17:11:52",18724.000,"cc",28290.889,6.00,6,0.100,15970.000,0.200,2571.000,0.300,170.000,0.500,13.000,1.000,0,5.000,0
"03/09/08","17:11:58",18401.000,"cc",28383.398,6.00,6,0.100,15825.000,0.200,2423.000,0.300,145.000,0.500,6.000,1.000,2.000,5.000,0
"03/09/08","17:12:04",17967.000,"cc",28330.787,6.00,6,0.100,15513.000,0.200,2322.000,0.300,119.000,0.500,12.000,1.000,1.000,5.000,0
"03/09/08","17:12:10",18434.000,"cc",28279.213,6.00,6,0.100,15819.000,0.200,2487.000,0.300,122.000,0.500,6.000,1.000,0,5.000,0
"03/09/08","17:12:16",18370.000,"cc",28291.566,6.00,6,0.100,15736.000,0.200,2479.000,0.300,139.000,0.500,15.000,1.000,1.000,5.000,0
"03/09/08","17:12:22",18200.000,"cc",28277.232,6.00,6,0.100,15619.000,0.200,2436.000,0.300,137.000,0.500,8.000,1.000,0,5.000,0
"03/09/08","17:12:28",18631.000,"cc",28352.731,6.00,6,0.100,15972.000,0.200,2512.000,0.300,139.000,0.500,7.000,1.000,1.000,5.000,0
"03/09/08","17:12:34",18214.000,"cc",28314.066,6.00,6,0.100,15739.000,0.200,2322.000,0.300,146.000,0.500,7.000,1.000,0,5.000,0
"03/09/08","17:12:40",18701.000,"cc",28366.332,6.00,6,0.100,16005.000,0.200,2549.000,0.300,132.000,0.500,14.000,1.000,1.000,5.000,0
"03/09/08","17:12:46",18750.000,"cc",28195.340,6.00,6,0.100,16120.000,0.200,2462.000,0.300,160.000,0.500,7.000,1.000,1.000,5.000,0
"03/09/08","17:12:52",18533.000,"cc",28345.199,6.00,6,0.100,15969.000,0.200,2397.000,0.300,152.000,0.500,13.000,1.000,2.000,5.000,0
"03/09/08","17:12:58",18553.000,"cc",28324.340,6.00,6,0.100,15981.000,0.200,2420.000,0.300,142.000,0.500,10.000,1.000,0,5.000,0
"03/09/08","17:13:04",18456.000,"cc",28315.039,6.00,6,0.100,15900.000,0.200,2411.000,0.300,137.000,0.500,8.000,1.000,0,5.000,0
"03/09/08","17:13:10",18605.000,"cc",28323.838,6.00,6,0.100,15997.000,0.200,2454.000,0.300,146.000,0.500,8.000,1.000,0,5.000,0
"03/09/08","17:13:16",18224.000,"cc",28240.404,6.00,6,0.100,15699.000,0.200,2379.000,0.300,137.000,0.500,8.000,1.000,1.000,5.000,0
"03/09/08","17:13:22",18469.000,"cc",28323.734,6.00,6,0.100,15937.000,0.200,2400.000,0.300,122.000,0.500,10.000,1.000,0,5.000,0
"03/09/08","17:13:28",18404.000,"cc",28376.443,6.00,6,0.100,15758.000,0.200,2484.000,0.300,155.000,0.500,7.000,1.000,0,5.000,0
"03/09/08","17:13:34",18403.000,"cc",28343.482,6.00,6,0.100,15779.000,0.200,2502.000,0.300,116.000,0.500,6.000,1.000,0,5.000,0
"03/09/08","17:13:40",18366.000,"cc",28307.400,6.00,6,0.100,15744.000,0.200,2426.000,0.300,169.000,0.500,27.000,1.000,0,5.000,0
"03/09/08","17:13:46",18726.000,"cc",28305.190,6.00,6,0.100,15983.000,0.200,2571.000,0.300,158.000,0.500,13.000,1.000,1.000,5.000,0
"03/09/08","17:13:52",19032.000,"cc",28264.990,6.00,6,0.100,16162.000,0.200,2656.000,0.300,195.000,0.500,18.000,1.000,1.000,5.000,0
"03/09/08","17:13:58",18542.000,"cc",28365.147,6.00,6,0.100,15874.000,0.200,2515.000,0.300,141.000,0.500,11.000,1.000,1.000,5.000,0
"03/09/08","17:14:04",18577.000,"cc",28317.113,6.00,6,0.100,15868.000,0.200,2555.000,0.300,144.000,0.500,10.000,1.000,0,5.000,0
"03/09/08","17:14:10",18890.000,"cc",28258.184,6.00,6,0.100,16176.000,0.200,2519.000,0.300,181.000,0.500,13.000,1.000,1.000,5.000,0
"03/09/08","17:14:16",18673.000,"cc",28288.354,6.00,6,0.100,15980.000,0.200,2517.000,0.300,157.000,0.500,18.000,1.000,1.000,5.000,0
"03/09/08","17:14:22",18751.000,"cc",28411.869,6.00,6,0.100,16070.000,0.200,2505.000,0.300,169.000,0.500,7.000,1.000,0,5.000,0
"03/09/08","17:14:28",18160.000,"cc",28358.512,6.00,6,0.100,15613.000,0.200,2424.000,0.300,111.000,0.500,10.000,1.000,2.000,5.000,0
"03/09/08","17:14:34",18407.000,"cc",28303.377,6.00,6,0.100,15754.000,0.200,2505.000,0.300,139.000,0.500,9.000,1.000,0,5.000,0
"03/09/08","17:14:40",18542.000,"cc",28312.637,6.00,6,0.100,15920.000,0.200,2460.000,0.300,151.000,0.500,11.000,1.000,0,5.000,0
"03/09/08","17:14:46",18202.000,"cc",28304.672,6.00,6,0.100,15670.000,0.200,2407.000,0.300,116.000,0.500,8.000,1.000,1.000,5.000,0
"03/09/08","17:14:52",18252.000,"cc",28336.273,6.00,6,0.100,15719.000,0.200,2376.000,0.300,142.000,0.500,14.000,1.000,1.000,5.000,0
"03/09/08","17:14:58",18389.000,"cc",28268.109,6.00,6,0.100,15837.000,0.200,2378.000,0.300,157.000,0.500,17.000,1.000,0,5.000,0
"03/09/08","17:15:04",18492.000,"cc",28345.350,6.00,6,0.100,15854.000,0.200,2479.000,0.300,145.000,0.500,13.000,1.000,1.000,5.000,0
"03/09/08","17:15:10",18269.000,"cc",28364.705,6.00,6,0.100,15703.000,0.200,2389.000,0.300,171.000,0.500,6.000,1.000,0,5.000,0
"03/09/08","17:15:16",18731.000,"cc",28277.293,6.00,6,0.100,16041.000,0.200,2530.000,0.300,142.000,0.500,18.000,1.000,0,5.000,0
"03/09/08","17:15:22",18242.000,"cc",28308.555,6.00,6,0.100,15697.000,0.200,2393.000,0.300,145.000,0.500,7.000,1.000,0,5.000,0
"03/09/08","17:15:28",18556.000,"cc",28229.086,6.00,6,0.100,16060.000,0.200,2342.000,0.300,143.000,0.500,11.000,1.000,0,5.000,0
"03/09/08","17:15:34",18552.000,"cc",28284.217,6.00,6,0.100,16015.000,0.200,2393.000,0.300,132.000,0.500,12.000,1.000,0,5.000,0
"03/09/08","17:15:40",18604.000,"cc",28379.393,6.00,6,0.100,16014.000,0.200,2448.000,0.300,132.000,0.500,9.000,1.000,1.000,5.000,0
"03/09/08","17:15:46",18494.000,"cc",28311.219,6.00,6,0.100,15872.000,0.200,2482.000,0.300,128.000,0.500,12.000,1.000,0,5.000,0
"03/09/08","17:15:52",18581.000,"cc",28250.904,6.00,6,0.100,16006.000,0.200,2416.000,0.300,147.000,0.500,11.000,1.000,1.000,5.000,0
"03/09/08","17:15:58",18874.000,"cc",28361.172,6.00,6,0.100,16194.000,0.200,2518.000,0.300,152.000,0.500,10.000,1.000,0,5.000,0
"03/09/08","17:16:04",18414.000,"cc",28324.195,6.00,6,0.100,15832.000,0.200,2439.000,0.300,126.000,0.500,17.000,1.000,0,5.000,0
"03/09/08","17:16:10",18995.000,"cc",28381.336,6.00,6,0.100,16182.000,0.200,2623.000,0.300,172.000,0.500,16.000,1.000,2.000,5.000,0
"03/09/08","17:16:16",18517.000,"cc",28316.236,6.00,6,0.100,15847.000,0.200,2519.000,0.300,144.000,0.500,7.000,1.000,0,5.000,0
"03/09/08","17:16:22",18817.000,"cc",28292.006,6.00,6,0.100,16142.000,0.200,2522.000,0.300,142.000,0.500,11.000,1.000,0,5.000,0
"03/09/08","17:16:28",18497.000,"cc",28380.131,6.00,6,0.100,15893.000,0.200,2447.000,0.300,146.000,0.500,11.000,1.000,0,5.000,0
"03/09/08","17:16:34",18832.000,"cc",28310.912,6.00,6,0.100,16182.000,0.200,2517.000,0.300,128.000,0.500,4.000,1.000,1.000,5.000,0
"03/09/08","17:16:40",18431.000,"cc",28354.248,6.00,6,0.100,15810.000,0.200,2459.000,0.300,151.000,0.500,11.000,1.000,0,5.000,0
"03/09/08","17:16:46",18760.000,"cc",28339.500,6.00,6,0.100,15910.000,0.200,2673.000,0.300,159.000,0.500,18.000,1.000,0,5.000,0
"03/09/08","17:16:52",18863.000,"cc",28288.445,6.00,6,0.100,16049.000,0.200,2633.000,0.300,163.000,0.500,17.000,1.000,1.000,5.000,0
"03/09/08","17:16:58",18907.000,"cc",28279.772,6.00,6,0.100,16176.000,0.200,2581.000,0.300,138.000,0.500,12.000,1.000,0,5.000,0
"03/09/08","17:17:04",18704.000,"cc",28328.650,6.00,6,0.100,16109.000,0.200,2446.000,0.300,139.000,0.500,9.000,1.000,1.000,5.000,0
"03/09/08","17:17:10",18896.000,"cc",28290.303,6.00,6,0.100,16133.000,0.200,2595.000,0.300,156.000,0.500,12.000,1.000,0,5.000,0
"03/09/08","17:17:16",18811.000,"cc",28298.164,6.00,6,0.100,16105.000,0.200,2555.000,0.300,139.000,0.500,11.000,1.000,1.000,5.000,0
"03/09/08","17:17:22",18866.000,"cc",28351.186,6.00,6,0.100,16100.000,0.200,2599.000,0.300,151.000,0.500,13.000,1.000,3.000,5.000,0